Location: Banff
(51.1670°N, 115.5670°W)
Time: 12:36:12
(UTC-06:00)

Amateur Radio Satellites - All Passes

Search period start: 27 July 2017 12:06
Search period end: 28 July 2017 12:06
Location: Banff, 51.1670°N, 115.5670°W

Satellite Date Start Highest point End Downlink Frequencies (MHz)
Time Altitude Azimuth
AO-73 27 Jul 12:06:30 12:08:46 14° 303° (WNW) 12:11:01 145.935
NANOSAT C BR1 27 Jul 12:08:55 12:13:00 46° 69° (ENE) 12:17:05 145.865
EO-79 27 Jul 12:10:34 12:14:43 53° 70° (ENE) 12:18:52 145.935-145.965
SO-50 27 Jul 12:11:33 12:14:29 17° 12° (NNE) 12:17:23 436.795
FO-29 27 Jul 12:23:55 12:29:05 19° 278° (W) 12:34:19 435.910
AO-7 27 Jul 12:38:58 12:42:49 14° 25° (NNE) 12:46:41 .
AO-85 27 Jul 12:39:40 12:42:23 18° 115° (ESE) 12:45:04 145.980
AIST 2D 27 Jul 12:41:25 12:44:34 32° 264° (W) 12:47:45 435.315
SPROUT 27 Jul 12:48:41 12:49:39 11° 85° (E) 12:50:35 437.525
NO-84 27 Jul 12:59:02 13:02:11 87° 337° (NNW) 13:05:38 435.350 FM
LO-87 27 Jul 13:00:01 13:03:40 76° 105° (ESE) 13:07:14 145.935 - 145.965
Oscar 19 27 Jul 13:02:13 13:06:30 28° 60° (ENE) 13:10:48 437.125/150
EO-88 27 Jul 13:05:31 13:07:58 17° 298° (WNW) 13:10:25 145.990 - 145.960
DUCHIFAT 1 27 Jul 13:15:28 13:19:32 45° 261° (W) 13:23:37 145.980
ESTCUBE 1 27 Jul 13:17:49 13:22:20 67° 102° (ESE) 13:26:51 437.505/2401.250
DELFI C3 27 Jul 13:18:47 13:20:15 12° 304° (NW) 13:21:42 145.870
POLYITAN 1 27 Jul 13:22:25 13:26:15 32° 264° (W) 13:30:07 437.675
BEESAT 3 27 Jul 13:28:12 13:32:05 50° 125° (SE) 13:36:01 437.485
BUGSAT 1 27 Jul 13:33:05 13:37:20 89° 260° (W) 13:41:34 437.445
QB50P2 27 Jul 13:36:14 13:39:39 23° 267° (W) 13:43:04 145.880/145.840
PCSat 27 Jul 13:39:59 13:45:22 58° 47° (NE) 13:50:44 145.827
50 SAT 27 Jul 13:40:21 13:40:57 10° 88° (E) 13:41:33 437.505
NANOSAT C BR1 27 Jul 13:45:36 13:48:56 22° 268° (W) 13:52:16 145.865
EO-79 27 Jul 13:47:39 13:50:47 20° 269° (W) 13:53:55 145.935-145.965
Gurwin Techsat 1B 27 Jul 13:48:52 13:53:52 43° 65° (ENE) 13:58:55 435.225
DX 1 27 Jul 13:50:04 13:52:00 13° 87° (E) 13:53:56 434.975-435.025
VELOX 1 27 Jul 13:51:48 13:55:58 36° 97° (E) 14:00:05 145.980
SO-50 27 Jul 13:51:56 13:56:09 36° 35° (NE) 14:00:22 436.795
BEESAT 2 27 Jul 14:14:14 14:18:08 52° 125° (SE) 14:22:06 435.950
AO-85 27 Jul 14:18:25 14:22:20 65° 313° (NW) 14:26:16 145.980
SPROUT 27 Jul 14:21:58 14:26:16 83° 105° (ESE) 14:30:31 437.525
AO-7 27 Jul 14:25:54 14:33:13 36° 50° (NE) 14:40:33 .
UKube-1 27 Jul 14:26:06 14:29:14 19° 91° (E) 14:32:20 .
LO-87 27 Jul 14:35:02 14:36:33 12° 302° (WNW) 14:38:04 145.935 - 145.965
NO-84 27 Jul 14:36:42 14:39:53 43° 357° (N) 14:43:23 435.350 FM
Oscar 19 27 Jul 14:40:33 14:45:34 53° 260° (W) 14:50:37 437.125/150
ESTCUBE 1 27 Jul 14:55:30 14:58:42 19° 301° (WNW) 15:01:54 437.505/2401.250
ITAMSAT 1 27 Jul 14:59:35 15:03:57 28° 59° (ENE) 15:08:21 435.822/435.867
BEESAT 3 27 Jul 15:06:15 15:09:52 30° 325° (NW) 15:13:29 437.485
50 SAT 27 Jul 15:10:41 15:14:08 71° 286° (WNW) 15:17:33 437.505
BUGSAT 1 27 Jul 15:11:56 15:13:19 11° 274° (W) 15:14:43 437.445
RS-15 27 Jul 15:19:07 15:28:54 30° 102° (ESE) 15:38:42 29.354- 29.394
PCSat 27 Jul 15:23:47 15:28:31 31° 248° (WSW) 15:33:12 145.827
DX 1 27 Jul 15:24:24 15:28:50 88° 282° (WNW) 15:33:13 434.975-435.025
BEESAT 27 Jul 15:27:58 15:28:51 10° 84° (E) 15:29:44 436.000
VELOX 1 27 Jul 15:28:24 15:32:21 31° 296° (WNW) 15:36:17 145.980
Gurwin Techsat 1B 27 Jul 15:29:08 15:33:57 34° 265° (W) 15:38:47 435.225
O/OREOS (USA 219) 27 Jul 15:30:39 15:34:32 29° 106° (ESE) 15:38:25 437.305
SO-50 27 Jul 15:32:23 15:36:45 48° 236° (SW) 15:41:09 436.795
ITUPSAT 1 27 Jul 15:41:41 15:44:13 14° 87° (E) 15:46:46 437.325
BEESAT 2 27 Jul 15:52:31 15:56:06 30° 326° (NW) 15:59:45 435.950
SPROUT 27 Jul 15:59:10 16:01:35 15° 303° (WNW) 16:03:59 437.525
AO-85 27 Jul 16:00:44 16:03:28 18° 337° (NNW) 16:06:13 145.980
UKube-1 27 Jul 16:01:21 16:05:37 57° 290° (WNW) 16:09:51 .
MOZHAYETS 4 27 Jul 16:02:21 16:05:24 17° 89° (E) 16:08:26
DOVE 4 27 Jul 16:09:29 16:10:52 11° 48° (NE) 16:12:15 437.250
NO-84 27 Jul 16:14:14 16:17:44 61° 18° (NNE) 16:21:32 435.350 FM
AO-7 27 Jul 16:17:03 16:25:25 76° 252° (WSW) 16:33:52 .
ITAMSAT 1 27 Jul 16:38:00 16:43:08 56° 259° (W) 16:48:18 435.822/435.867
CUBESAT XI-V 27 Jul 16:46:03 16:47:04 11° 84° (E) 16:48:04 437.345
BEESAT 3 27 Jul 16:46:36 16:48:38 13° 348° (NNW) 16:50:39 437.485
DX 1 27 Jul 17:02:00 17:04:21 14° 305° (NW) 17:06:43 434.975-435.025
BEESAT 27 Jul 17:02:44 17:07:30 72° 104° (ESE) 17:12:15 436.000
CUTE-I 27 Jul 17:08:54 17:12:00 16° 51° (NE) 17:15:05 437.470
O/OREOS (USA 219) 27 Jul 17:09:34 17:13:49 41° 306° (NW) 17:18:05 437.305
ITUPSAT 1 27 Jul 17:17:56 17:22:44 87° 284° (WNW) 17:27:29 437.325
XW-2F 27 Jul 17:21:47 17:22:42 11° 56° (ENE) 17:23:38 145.980 - 146.000
RS-15 27 Jul 17:27:26 17:39:44 83° 127° (SE) 17:52:07 29.354- 29.394
BEESAT 2 27 Jul 17:33:02 17:35:04 13° 348° (NNW) 17:37:07 435.950
MOZHAYETS 4 27 Jul 17:38:29 17:43:02 68° 288° (WNW) 17:47:33
DOVE 4 27 Jul 17:42:29 17:47:21 51° 68° (ENE) 17:52:27 437.250
AO-85 27 Jul 17:43:49 17:45:25 12° 3° (N) 17:47:02 145.980
XW-2D 27 Jul 17:50:24 17:53:16 21° 63° (ENE) 17:56:09 145.860 - 145.880
NO-84 27 Jul 17:51:41 17:55:10 41° 216° (SW) 17:58:56 435.350 FM
KKS-1 27 Jul 17:58:55 18:02:43 26° 94° (E) 18:06:28 437.445
XW-2B 27 Jul 18:00:16 18:03:22 25° 65° (ENE) 18:06:29 145.730 - 145.750
NUDT-PHONESAT 27 Jul 18:13:44 18:16:50 26° 66° (ENE) 18:19:57 437.300
AO-7 27 Jul 18:13:58 18:19:37 19° 274° (W) 18:25:19 .
HO-68 27 Jul 18:16:24 18:22:15 28° 51° (NE) 18:28:06 435.675
XW-2C 27 Jul 18:17:19 18:20:48 37° 69° (ENE) 18:24:17 145.795 - 145.815
CUBESAT XI-V 27 Jul 18:20:35 18:25:16 74° 104° (ESE) 18:29:57 437.345
STARS 27 Jul 18:20:49 18:24:03 20° 91° (E) 18:27:16 437.465
YUBILEINY 27 Jul 18:22:02 18:29:07 28° 79° (ENE) 18:36:12 435.215
BEESAT 3 27 Jul 18:25:48 18:27:50 13° 12° (NNE) 18:29:51 437.485
KAITUO 1B 27 Jul 18:32:02 18:35:31 41° 70° (ENE) 18:39:01 145.475/437.950
BEESAT 27 Jul 18:41:24 18:44:48 20° 303° (WNW) 18:48:12 436.000
LilacSat-2 27 Jul 18:43:48 18:47:34 77° 74° (ENE) 18:51:21 437.200
CUTE-I 27 Jul 18:45:49 18:51:10 72° 72° (ENE) 18:56:34 437.470
XW-2F 27 Jul 18:52:28 18:56:12 86° 75° (ENE) 18:59:58 145.980 - 146.000
O/OREOS (USA 219) 27 Jul 18:53:36 18:54:29 10° 329° (NNW) 18:55:23 437.305
ITUPSAT 1 27 Jul 18:57:04 18:59:53 16° 306° (NW) 19:02:43 437.325
UWE-3 27 Jul 19:10:11 19:12:14 13° 56° (NE) 19:14:17 435.000/436.395/437.385
BEESAT 2 27 Jul 19:12:20 19:14:28 14° 13° (NNE) 19:16:35 435.950
MOZHAYETS 4 27 Jul 19:17:42 19:19:21 12° 308° (NW) 19:21:01
DOVE 4 27 Jul 19:20:58 19:25:17 28° 269° (W) 19:29:46 437.250
XW-2D 27 Jul 19:23:42 19:27:14 40° 262° (W) 19:30:49 145.860 - 145.880
AO-85 27 Jul 19:24:10 19:27:16 21° 27° (NNE) 19:30:30 145.980
XW-2B 27 Jul 19:34:03 19:37:28 32° 264° (W) 19:40:52 145.730 - 145.750
KKS-1 27 Jul 19:35:11 19:39:26 43° 293° (WNW) 19:43:39 437.445
Oscar 11 27 Jul 19:39:48 19:40:08 10° 52° (NE) 19:40:30 .
RS-15 27 Jul 19:41:32 19:53:32 51° 336° (NNW) 20:05:24 29.354- 29.394
CUTE 1.7 + AOD 2 27 Jul 19:41:42 19:45:49 57° 71° (ENE) 19:49:57 437.475
NUDT-PHONESAT 27 Jul 19:47:25 19:50:40 29° 264° (W) 19:53:56 437.300
SEEDS 27 Jul 19:48:17 19:52:14 44° 69° (ENE) 19:56:14 437.485
CUBEBUG 2 27 Jul 19:52:00 19:56:23 43° 69° (ENE) 20:00:40 437.445
XW-2C 27 Jul 19:52:11 19:55:07 21° 267° (W) 19:58:04 145.795 - 145.815
AO-73 27 Jul 19:54:38 19:57:26 17° 59° (ENE) 20:00:12 145.935
STARS 27 Jul 19:56:25 20:00:45 56° 291° (WNW) 20:05:03 437.465
CUBESAT XI-V 27 Jul 19:58:55 20:02:08 19° 302° (WNW) 20:05:22 437.345
HO-68 27 Jul 20:02:07 20:09:19 83° 253° (WSW) 20:16:33 435.675
BEESAT 3 27 Jul 20:02:59 20:06:36 30° 35° (NE) 20:10:11 437.485
KAITUO 1B 27 Jul 20:07:02 20:09:43 19° 268° (W) 20:12:25 145.475/437.950
YUBILEINY 27 Jul 20:16:10 20:25:02 80° 282° (WNW) 20:33:55 435.215
XW-2A 27 Jul 20:17:45 20:21:07 86° 77° (ENE) 20:24:31 145.665 - 145.685
LilacSat-2 27 Jul 20:21:10 20:22:22 11° 273° (W) 20:23:33 437.200
AAUSAT CUBESAT 2 27 Jul 20:22:44 20:26:41 48° 70° (ENE) 20:30:41 437.432
CUTE-I 27 Jul 20:27:50 20:31:47 21° 271° (W) 20:35:46 437.470
UWE-3 27 Jul 20:43:30 20:48:02 80° 73° (ENE) 20:52:27 435.000/436.395/437.385
STRAND 1 27 Jul 20:43:33 20:48:18 37° 96° (E) 20:53:00 437.568
BEESAT 2 27 Jul 20:49:41 20:53:24 32° 36° (NE) 20:57:04 435.950
ZACube-1 27 Jul 20:50:34 20:54:51 55° 71° (ENE) 20:59:04 437.345
Tancredo 1 27 Jul 20:52:29 20:55:03 28° 150° (SSE) 20:57:37 437.200
DELFI C3 27 Jul 20:59:22 21:01:37 15° 58° (ENE) 21:03:54 145.870
AO-85 27 Jul 21:04:06 21:08:14 81° 48° (NE) 21:12:38 145.980
Oscar 11 27 Jul 21:11:11 21:15:25 62° 72° (ENE) 21:19:41 .
ISS 27 Jul 21:13:20 21:15:52 21° 145° (SE) 21:18:25 437.550
CUTE 1.7 + AOD 2 27 Jul 21:19:08 21:22:00 18° 270° (W) 21:24:54 437.475
SEEDS 27 Jul 21:24:50 21:28:08 22° 268° (W) 21:31:27 437.485
AO-73 27 Jul 21:28:51 21:33:13 72° 258° (WSW) 21:37:30 145.935
CUBEBUG 2 27 Jul 21:29:11 21:33:08 27° 267° (W) 21:37:01 437.445
BEESAT 3 27 Jul 21:40:28 21:44:22 49° 236° (SW) 21:48:12 437.485
FO-29 27 Jul 21:41:44 21:45:48 16° 79° (E) 21:49:37 435.910
nSIGHT-1 27 Jul 21:51:58 21:55:00 37° 152° (SSE) 21:58:01 .
HO-68 27 Jul 21:53:12 21:58:08 19° 274° (W) 22:03:05 435.675
RS-15 27 Jul 21:57:33 22:09:16 44° 9° (N) 22:20:35 29.354- 29.394
AAUSAT CUBESAT 2 27 Jul 21:59:19 22:02:25 20° 269° (W) 22:05:32 437.432
EO-88 27 Jul 22:13:21 22:16:51 45° 70° (ENE) 22:20:21 145.990 - 145.960
YUBILEINY 27 Jul 22:16:39 22:23:26 24° 307° (NW) 22:30:16 435.215
UWE-3 27 Jul 22:22:35 22:25:01 14° 272° (W) 22:27:26 435.000/436.395/437.385
STRAND 1 27 Jul 22:22:47 22:27:30 38° 296° (WNW) 22:32:11 437.568
Tancredo 1 27 Jul 22:27:16 22:30:13 87° 159° (SSE) 22:33:10 437.200
BEESAT 2 27 Jul 22:27:23 22:31:19 47° 236° (SW) 22:35:12 435.950
ZACube-1 27 Jul 22:28:17 22:31:27 19° 269° (W) 22:34:36 437.345
DELFI C3 27 Jul 22:31:57 22:35:53 73° 257° (WSW) 22:39:53 145.870
PRISM 27 Jul 22:41:40 22:43:45 13° 88° (E) 22:45:48 437.425
AO-85 27 Jul 22:45:31 22:48:10 16° 246° (WSW) 22:50:57 145.980
ESTCUBE 1 27 Jul 22:47:17 22:50:16 18° 57° (ENE) 22:53:14 437.505/2401.250
TIGRISAT 27 Jul 22:48:23 22:51:23 18° 90° (E) 22:54:21 435.000
ISS 27 Jul 22:48:44 22:51:59 72° 164° (SSE) 22:55:14 437.550
Oscar 11 27 Jul 22:49:07 22:51:59 17° 271° (W) 22:54:50 .
M-CUBED/EXP-1 PRIME 27 Jul 23:19:32 23:21:31 12° 92° (E) 23:23:29 437.505
VELOX 1 27 Jul 23:21:23 23:22:22 11° 51° (NE) 23:23:22 145.980
FO-29 27 Jul 23:25:04 23:32:20 73° 103° (ESE) 23:38:40 435.910
nSIGHT-1 27 Jul 23:28:01 23:31:15 87° 347° (NNW) 23:34:30 .
LO-87 27 Jul 23:40:28 23:44:04 67° 74° (ENE) 23:47:43 145.935 - 145.965
UNISAT 6 27 Jul 23:40:48 23:45:07 60° 101° (E) 23:49:19 437.425
SPROUT 27 Jul 23:45:48 23:48:40 18° 58° (ENE) 23:51:32 437.525
EO-88 27 Jul 23:48:20 23:50:46 17° 269° (W) 23:53:12 145.990 - 145.960
O/OREOS (USA 219) 27 Jul 23:55:52 23:59:35 24° 47° (NE) 00:03:17 437.305
AIST 2D 28 Jul 00:02:05 00:03:51 13° 89° (E) 00:05:37 435.315
Tancredo 1 28 Jul 00:02:42 00:05:38 87° 3° (N) 00:08:36 437.200
RS-15 28 Jul 00:11:45 00:24:06 72° 41° (NE) 00:35:48 29.354- 29.394
PRISM 28 Jul 00:15:22 00:19:34 77° 285° (WNW) 00:23:43 437.425
50 SAT 28 Jul 00:17:12 00:17:42 10° 57° (ENE) 00:18:10 437.505
ESTCUBE 1 28 Jul 00:22:05 00:26:32 74° 256° (WSW) 00:31:04 437.505/2401.250
TIGRISAT 28 Jul 00:24:13 00:28:29 57° 289° (WNW) 00:32:39 435.000
ISS 28 Jul 00:25:13 00:28:29 81° 0° (N) 00:31:46 437.550
DX 1 28 Jul 00:49:41 00:53:05 22° 60° (ENE) 00:56:29 434.975-435.025
M-CUBED/EXP-1 PRIME 28 Jul 00:51:56 00:56:34 80° 109° (ESE) 01:01:15 437.505
VELOX 1 28 Jul 00:53:33 00:57:56 61° 71° (ENE) 01:02:21 145.980
DUCHIFAT 1 28 Jul 00:54:37 00:57:43 20° 91° (E) 01:00:48 145.980
POLYITAN 1 28 Jul 01:01:42 01:05:21 28° 95° (E) 01:08:57 437.675
nSIGHT-1 28 Jul 01:04:27 01:07:42 85° 192° (SSW) 01:10:56 .
FO-29 28 Jul 01:10:38 01:16:44 30° 306° (NW) 01:22:17 435.910
QB50P2 28 Jul 01:14:45 01:18:46 40° 98° (E) 01:22:43 145.880/145.840
LO-87 28 Jul 01:16:26 01:17:56 12° 272° (W) 01:19:27 145.935 - 145.965
UNISAT 6 28 Jul 01:18:20 01:21:26 19° 301° (WNW) 01:24:29 437.425
SPROUT 28 Jul 01:19:49 01:24:06 69° 258° (WSW) 01:28:25 437.525
NANOSAT C BR1 28 Jul 01:23:27 01:27:27 41° 98° (E) 01:31:25 145.865
UKube-1 28 Jul 01:25:00 01:28:48 31° 64° (ENE) 01:32:39 .
EO-79 28 Jul 01:25:33 01:29:39 47° 100° (E) 01:33:42 145.935-145.965
AIST 2D 28 Jul 01:33:57 01:37:24 55° 287° (WNW) 01:40:49 435.315
O/OREOS (USA 219) 28 Jul 01:34:55 01:39:20 58° 247° (WSW) 01:43:44 437.305
Tancredo 1 28 Jul 01:38:10 01:40:52 33° 208° (SSW) 01:43:34 437.200
50 SAT 28 Jul 01:46:25 01:49:50 87° 257° (WSW) 01:53:17 437.505
PRISM 28 Jul 01:52:31 01:54:07 12° 306° (NW) 01:55:43 437.425
ISS 28 Jul 02:01:44 02:04:55 50° 203° (SSW) 02:08:05 437.550
Gurwin Techsat 1B 28 Jul 02:02:16 02:03:30 11° 83° (E) 02:04:43 435.225
DX 1 28 Jul 02:24:41 02:28:58 53° 259° (W) 02:33:17 434.975-435.025
RS-15 28 Jul 02:24:50 02:36:06 48° 248° (WSW) 02:46:51 29.354- 29.394
M-CUBED/EXP-1 PRIME 28 Jul 02:27:12 02:30:29 20° 308° (NW) 02:33:48 437.505
DUCHIFAT 1 28 Jul 02:29:36 02:33:41 50° 290° (WNW) 02:37:42 145.980
VELOX 1 28 Jul 02:31:40 02:34:47 19° 270° (W) 02:37:55 145.980
POLYITAN 1 28 Jul 02:37:21 02:41:12 36° 293° (WNW) 02:45:02 437.675
BEESAT 28 Jul 02:37:35 02:41:22 24° 59° (ENE) 02:45:10 436.000
nSIGHT-1 28 Jul 02:41:01 02:43:52 29° 211° (SSW) 02:46:43 .
BUGSAT 1 28 Jul 02:44:56 02:49:04 77° 104° (ESE) 02:53:07 437.445
Oscar 19 28 Jul 02:46:40 02:51:27 36° 96° (E) 02:56:13 437.125/150
QB50P2 28 Jul 02:50:53 02:54:24 26° 297° (WNW) 02:57:53 145.880/145.840
ITUPSAT 1 28 Jul 02:52:37 02:56:46 31° 62° (ENE) 03:00:57 437.325
NANOSAT C BR1 28 Jul 02:59:32 03:03:00 25° 297° (WNW) 03:06:27 145.865
UKube-1 28 Jul 03:00:50 03:04:47 34° 263° (W) 03:08:47 .
EO-79 28 Jul 03:01:51 03:05:09 23° 298° (WNW) 03:08:27 145.935-145.965
MOZHAYETS 4 28 Jul 03:08:44 03:12:43 30° 64° (ENE) 03:16:41
Gurwin Techsat 1B 28 Jul 03:39:11 03:44:30 65° 102° (ESE) 03:49:48 435.225
ISS 28 Jul 03:39:15 03:40:49 13° 221° (SW) 03:42:22 437.550
CUBESAT XI-V 28 Jul 03:53:02 03:56:22 20° 59° (ENE) 03:59:43 437.345
AO-7 28 Jul 04:13:17 04:20:11 28° 91° (E) 04:27:02 .
BEESAT 28 Jul 04:14:08 04:18:49 57° 259° (W) 04:23:33 436.000
BUGSAT 1 28 Jul 04:21:33 04:23:53 15° 303° (WNW) 04:26:12 437.445
YUBILEINY 28 Jul 04:23:51 04:30:04 21° 50° (NE) 04:36:12 435.215
Oscar 19 28 Jul 04:26:02 04:30:49 39° 296° (WNW) 04:35:36 437.125/150
PCSat 28 Jul 04:29:00 04:32:14 16° 105° (ESE) 04:35:30 145.827
ITUPSAT 1 28 Jul 04:29:56 04:34:28 42° 261° (W) 04:39:03 437.325
RS-15 28 Jul 04:42:54 04:44:59 11° 273° (W) 04:47:05 29.354- 29.394
MOZHAYETS 4 28 Jul 04:45:30 04:49:47 39° 263° (W) 04:54:05
ITAMSAT 1 28 Jul 04:45:34 04:50:20 35° 96° (E) 04:55:04 435.822/435.867
KKS-1 28 Jul 05:01:27 05:05:43 45° 68° (ENE) 05:10:01 437.445
Gurwin Techsat 1B 28 Jul 05:19:48 05:24:03 25° 302° (WNW) 05:28:18 435.225
STARS 28 Jul 05:21:48 05:25:47 34° 65° (ENE) 05:29:47 437.465
CUBESAT XI-V 28 Jul 05:28:44 05:33:18 65° 258° (WSW) 05:37:56 437.345
DOVE 4 28 Jul 05:38:41 05:40:03 11° 81° (E) 05:41:25 437.250
SO-50 28 Jul 05:52:58 05:55:34 15° 112° (ESE) 05:58:09 436.795
AO-7 28 Jul 06:05:29 06:13:54 83° 293° (WNW) 06:22:15 .
PCSat 28 Jul 06:09:24 06:14:50 83° 124° (SE) 06:20:18 145.827
YUBILEINY 28 Jul 06:20:01 06:28:49 70° 75° (ENE) 06:37:30 435.215
ITAMSAT 1 28 Jul 06:25:01 06:29:53 41° 296° (WNW) 06:34:43 435.822/435.867
STRAND 1 28 Jul 06:27:43 06:31:01 17° 53° (NE) 06:34:18 437.568
KKS-1 28 Jul 06:38:46 06:42:28 25° 267° (W) 06:46:12 437.445
XW-2D 28 Jul 06:51:45 06:53:59 15° 90° (E) 06:56:12 145.860 - 145.880
STARS 28 Jul 06:58:05 07:02:06 33° 263° (W) 07:06:10 437.465
CUTE-I 28 Jul 06:58:25 07:02:13 19° 89° (E) 07:06:00 437.470
XW-2B 28 Jul 07:01:35 07:04:15 18° 91° (E) 07:06:54 145.730 - 145.750
NUDT-PHONESAT 28 Jul 07:12:41 07:15:16 18° 91° (E) 07:17:49 437.300
DOVE 4 28 Jul 07:13:30 07:18:47 66° 101° (E) 07:23:51 437.250
XW-2C 28 Jul 07:18:42 07:21:58 27° 95° (E) 07:25:13 145.795 - 145.815
HO-68 28 Jul 07:25:57 07:29:43 15° 83° (E) 07:33:26 435.675
SO-50 28 Jul 07:30:50 07:35:22 88° 131° (SE) 07:39:55 436.795
KAITUO 1B 28 Jul 07:31:51 07:35:09 29° 96° (E) 07:38:26 145.475/437.950
LilacSat-2 28 Jul 07:45:56 07:49:41 56° 101° (E) 07:53:25 437.200
XW-2F 28 Jul 07:53:21 07:57:05 60° 101° (E) 08:00:48 145.980 - 146.000
PCSat 28 Jul 07:54:11 07:58:51 28° 327° (NNW) 08:03:33 145.827
AO-7 28 Jul 07:58:57 08:05:40 28° 316° (NW) 08:12:20 .
FO-29 28 Jul 07:59:06 08:04:18 20° 46° (NE) 08:09:25 435.910
STRAND 1 28 Jul 08:04:20 08:09:30 86° 74° (ENE) 08:14:41 437.568
YUBILEINY 28 Jul 08:17:31 08:25:00 33° 279° (W) 08:32:26 435.215
XW-2D 28 Jul 08:24:48 08:28:31 56° 288° (WNW) 08:32:13 145.860 - 145.880
UWE-3 28 Jul 08:30:29 08:31:18 10° 85° (E) 08:32:08 435.000/436.395/437.385
XW-2B 28 Jul 08:35:03 08:38:41 45° 289° (WNW) 08:42:18 145.730 - 145.750
CUTE-I 28 Jul 08:37:30 08:42:53 76° 288° (WNW) 08:48:12 437.470
NUDT-PHONESAT 28 Jul 08:45:51 08:49:22 44° 290° (WNW) 08:52:53 437.300
DOVE 4 28 Jul 08:51:51 08:56:00 24° 301° (WNW) 09:00:03 437.250
XW-2C 28 Jul 08:52:50 08:56:10 30° 293° (WNW) 08:59:29 145.795 - 145.815
CUTE 1.7 + AOD 2 28 Jul 08:56:50 09:01:02 56° 100° (E) 09:05:14 437.475
SEEDS 28 Jul 09:02:07 09:06:09 42° 98° (E) 09:10:11 437.485
KAITUO 1B 28 Jul 09:05:54 09:09:07 28° 293° (WNW) 09:12:20 145.475/437.950
XW-2A 28 Jul 09:07:05 09:10:18 41° 99° (E) 09:13:28 145.665 - 145.685
UNISAT 6 28 Jul 09:09:43 09:12:29 16° 57° (ENE) 09:15:13 437.425
HO-68 28 Jul 09:11:41 09:18:51 67° 104° (ESE) 09:25:58 435.675
SO-50 28 Jul 09:12:37 09:16:23 25° 333° (NNW) 09:20:10 436.795
AO-73 28 Jul 09:12:41 09:15:03 15° 88° (E) 09:17:24 145.935
CUBEBUG 2 28 Jul 09:13:59 09:18:06 45° 98° (E) 09:22:05 437.445
LilacSat-2 28 Jul 09:21:07 09:23:36 17° 299° (WNW) 09:26:04 437.200
XW-2F 28 Jul 09:28:32 09:30:48 16° 300° (WNW) 09:33:04 145.980 - 146.000
AAUSAT CUBESAT 2 28 Jul 09:34:42 09:38:44 44° 98° (E) 09:42:45 437.432
PRISM 28 Jul 09:35:18 09:38:20 20° 60° (ENE) 09:41:23 437.425
FO-29 28 Jul 09:40:17 09:47:57 61° 67° (ENE) 09:55:35 435.910
PCSat 28 Jul 09:40:54 09:44:05 15° 353° (N) 09:47:17 145.827
STRAND 1 28 Jul 09:46:15 09:49:22 16° 273° (W) 09:52:30 437.568
TIGRISAT 28 Jul 09:51:18 09:55:20 32° 65° (ENE) 09:59:19 435.000
AO-7 28 Jul 09:53:00 09:55:41 12° 342° (NNW) 09:58:23 .
UWE-3 28 Jul 10:04:15 10:08:29 87° 101° (E) 10:12:38 435.000/436.395/437.385
DELFI C3 28 Jul 10:05:59 10:06:55 11° 86° (E) 10:07:52 145.870
M-CUBED/EXP-1 PRIME 28 Jul 10:08:51 10:12:16 29° 57° (ENE) 10:15:55 437.505
ZACube-1 28 Jul 10:09:39 10:13:46 57° 101° (E) 10:17:50 437.345
CUTE-I 28 Jul 10:18:53 10:22:06 16° 309° (NW) 10:25:17 437.470
Oscar 11 28 Jul 10:29:01 10:33:20 63° 101° (ESE) 10:37:37 .
CUTE 1.7 + AOD 2 28 Jul 10:33:25 10:36:31 20° 299° (WNW) 10:39:38 437.475
SEEDS 28 Jul 10:38:12 10:41:39 25° 297° (WNW) 10:45:07 437.485
XW-2A 28 Jul 10:40:33 10:42:45 17° 297° (WNW) 10:44:57 145.665 - 145.685
AIST 2D 28 Jul 10:42:00 10:43:27 12° 59° (ENE) 10:44:53 435.315
UNISAT 6 28 Jul 10:44:01 10:48:38 85° 254° (WSW) 10:53:10 437.425
AO-73 28 Jul 10:47:38 10:51:46 67° 288° (WNW) 10:55:51 145.935
NO-84 28 Jul 10:50:21 10:52:09 15° 132° (SE) 10:54:00 435.350 FM
EO-79 28 Jul 10:50:28 10:51:39 11° 53° (NE) 10:52:50 145.935-145.965
CUBEBUG 2 28 Jul 10:51:06 10:54:29 23° 298° (WNW) 10:57:49 437.445
SO-50 28 Jul 10:55:40 10:58:20 15° 357° (N) 11:01:00 436.795
HO-68 28 Jul 10:59:55 11:06:11 34° 305° (NW) 11:12:24 435.675
PRISM 28 Jul 11:09:14 11:13:16 54° 259° (W) 11:17:22 437.425
EO-88 28 Jul 11:10:34 11:13:48 29° 96° (E) 11:17:00 145.990 - 145.960
AAUSAT CUBESAT 2 28 Jul 11:10:37 11:13:59 24° 297° (WNW) 11:17:19 437.432
PCSat 28 Jul 11:25:51 11:29:39 19° 19° (NNE) 11:33:26 145.827
FO-29 28 Jul 11:26:04 11:33:15 39° 267° (W) 11:40:29 435.910
TIGRISAT 28 Jul 11:27:42 11:31:58 37° 263° (W) 11:36:11 435.000
DELFI C3 28 Jul 11:38:16 11:42:19 89° 268° (W) 11:46:20 145.870
UWE-3 28 Jul 11:42:12 11:44:20 14° 304° (NW) 11:46:26 435.000/436.395/437.385
M-CUBED/EXP-1 PRIME 28 Jul 11:43:03 11:46:36 35° 258° (WSW) 11:50:27 437.505
AO-7 28 Jul 11:44:00 11:44:47 10° 10° (N) 11:45:33 .
ZACube-1 28 Jul 11:46:45 11:49:41 19° 300° (WNW) 11:52:36 437.345
DUCHIFAT 1 28 Jul 11:50:51 11:54:31 29° 64° (ENE) 11:58:11 145.980
